Location: *
(43.0167°S, 179.9000°E)
Time: 20:40:44
(UTC+00:00)

Cosmos 2181 Rocket - Pass Details

Date: 12 August 2024
Orbit: 952 x 1013 km, 82.9° (Epoch: 19 September)

Event Time Altitude Azimuth Distance (km) Brightness Sun altitude
Rises 16:57:32 0° 187° (S) 3,719 7.0 -22.3°
Reaches altitude 10° 17:00:06 10° 185° (S) 2,756 6.3 -21.8°
Maximum altitude 17:06:25 75° 99° (E) 1,011 4.2 -20.6°
Drops below altitude 10° 17:12:34 10° 13° (NNE) 2,689 6.5 -19.5°
Sets 17:15:03 0° 11° (N) 3,623 7.2 -19.1°
